Location: Oshawa
(43.9000°N, 78.8670°W)
Time: 02:43:09
(UTC-05:00)

Cosmos 1500 - Visible Passes

Search period start: 09 December 2016 00:00
Search period end: 19 December 2016 00:00
Orbit: 503 x 526 km, 82.5° (Epoch: 09 December)

Date Brightness Start Highest point End Pass type
(mag) Time Alt. Az. Time Alt. Az. Time Alt. Az.
09 Dec 5.6 06:07:07 10° SSE 06:10:14 25° E 06:13:24 10° NNE visible
09 Dec 3.2 17:35:25 10° N 17:39:14 62° E 17:43:02 10° SSE visible
10 Dec 5.9 05:52:04 10° SE 05:54:56 21° E 05:57:49 10° NE visible
10 Dec 3.4 17:20:05 10° N 17:23:50 49° E 17:27:35 10° SSE visible
10 Dec 6.6 18:57:38 10° WNW 18:59:03 12° W 19:00:28 10° WSW visible
11 Dec 6.2 05:37:06 10° SE 05:39:37 17° E 05:42:09 10° NE visible
11 Dec 6.4 18:41:38 10° NW 18:43:45 14° W 18:45:52 10° WSW visible
12 Dec 6.4 05:22:15 10° ESE 05:24:19 14° E 05:26:23 10° NE visible
12 Dec 3.7 06:56:07 10° SSW 06:59:38 38° WNW 07:03:11 10° N visible
12 Dec 6.2 18:25:52 10° NW 18:28:27 17° W 18:31:02 10° SW visible
13 Dec 6.5 05:07:37 10° ESE 05:09:01 12° E 05:10:25 10° ENE visible
13 Dec 3.4 06:40:36 10° SSW 06:44:13 47° WNW 06:47:54 10° N visible
13 Dec 6.0 18:10:12 10° NW 18:13:08 21° W 18:16:04 10° SW visible
14 Dec 3.1 06:25:07 10° SSW 06:28:50 59° W 06:32:35 10° N visible
14 Dec 5.6 17:54:36 10° NNW 17:57:49 25° W 18:01:01 10° SW visible
15 Dec 3.0 06:09:40 10° SSW 06:13:26 74° W 06:17:14 10° N visible
15 Dec 5.3 17:39:03 10° NNW 17:42:29 31° W 17:45:54 10° SSW visible
16 Dec 3.1 05:54:17 10° S 05:58:02 88° E 06:01:51 10° N visible
16 Dec 4.9 17:23:32 10° NNW 17:27:08 38° W 17:30:43 10° SSW visible
17 Dec 3.3 05:38:55 10° S 05:42:39 71° E 05:46:27 10° NNE visible
17 Dec 4.4 17:08:03 10° NNW 17:11:47 47° W 17:15:29 10° SSW visible
18 Dec 3.7 05:23:36 10° S 05:27:17 56° E 05:31:01 10° NNE visible
18 Dec 5.1 07:02:25 10° W 07:03:22 11° WNW 07:04:21 10° NW visible
